Dewpoint
61 63 54 55 61 52 49 50 40 40 37 31 28 26 22 24 27 31 32 29 31 31 35 37 34 33 31 35 34 37 38 41 39 44 50 58 55 52 49 52 57 63 66 67 69 72 72 73 73 73 72 72 72 72 72 71 72 71 71 71 71 71 71 71 71 71 71 71 71 71 71 72 72 71 71 71 70 70 71 70 70 69 69 69 69 69 70 70 71 71 71 71 72 71 71 71 71
58 60 53 54 55 51 47 45 36 33 33 27 21 22 25 28 36 30 30 29 30 34 38 36 36 33 44 39 39 38 41 46 52 53 57 54 53 53 53 55 58 64 66 67 69 70 69 72 74 73 72 72 72 72 72 71 71 71 71 71 70 70 70 71 70 71 71 72 71 70 70 72 72 71 71 70 70 70 70 70 69 69 69 69 69 69 69 70 70 71 71 70 70 71 71 71 71
50 59 53 53 53 49 45 40 33 28 26 25 20 19 22 30 29 28 26 35 42 40 38 39 39 36 41 41 38 34 45 48 51 53 55 56 54 57 54 56 60 64 66 69 69 68 69 72 73 73 72 72 72 72 71 71 71 71 71 71 71 70 70 70 70 70 71 71 70 70 70 72 72 72 71 70 69 69 70 70 69 69 68 69 69 69 69 69 70 70 70 70 70 71 71 71 71
57 54 48 47 44 43 39 32 28 24 21 18 17 16 23 26 26 28 30 34 43 37 37 40 37 37 38 36 36 44 48 49 53 55 56 56 54 55 56 58 63 61 67 67 67 66 68 73 73 73 73 72 72 72 71 71 71 71 71 71 70 70 69 69 70 69 69 69 69 70 70 72 72 71 70 70 69 69 70 70 69 68 68 69 69 69 69 69 70 70 69 69 70 71 71 71 71
52 50 50 44 39 38 35 26 22 22 17 15 13 19 22 22 22 26 28 30 38 36 37 38 36 37 38 42 41 42 46 52 54 57 55 56 56 55 56 59 59 63 66 65 66 67 69 73 73 73 73 72 72 72 71 71 71 71 71 71 70 70 69 68 69 69 68 68 69 69 69 72 72 71 70 70 69 69 70 71 70 68 68 68 69 69 68 69 70 69 69 70 71 71 71 72 72
48 44 47 45 39 36 30 25 21 18 17 13 11 13 22 22 23 25 32 33 39 37 39 41 36 38 38 42 50 48 48 46 54 54 58 59 55 56 58 59 59 64 65 66 67 68 72 74 73 73 73 72 73 72 71 71 71 71 71 70 70 70 69 68 67 68 68 67 68 69 68 70 71 71 70 70 69 69 69 70 70 69 68 68 68 67 69 70 69 68 70 70 70 71 71 72 72
41 39 41 39 34 31 25 21 15 14 14 16 13 14 18 20 22 27 32 34 41 40 41 40 37 40 36 46 48 55 60 56 51 55 59 58 57 57 59 58 61 64 66 67 67 69 71 73 73 73 73 73 73 71 71 71 70 70 71 71 70 70 69 69 67 67 67 67 68 67 67 70 71 71 70 69 69 69 69 69 68 69 69 68 68 67 68 69 69 69 70 70 70 71 72 72 71
44 37 35 29 26 26 19 16 16 13 11 12 11 16 18 19 22 25 32 36 40 39 41 41 40 40 40 41 43 57 57 64 60 54 63 58 57 58 58 61 64 65 64 67 69 70 74 73 73 73 73 73 72 71 71 71 70 71 71 71 70 70 70 69 67 67 67 67 67 67 67 68 69 70 70 69 69 69 69 69 69 69 68 68 68 67 67 69 69 69 70 70 70 71 72 71 71
35 30 35 31 27 25 21 16 14 14 13 11 10 16 34 20 22 26 30 32 43 38 40 38 41 36 43 42 53 57 61 62 62 64 60 58 59 60 61 62 63 63 66 67 70 73 72 73 73 73 73 73 72 71 71 71 71 71 71 71 70 70 70 70 68 68 67 67 67 67 67 68 69 69 70 69 69 68 69 69 69 69 68 68 68 69 69 70 69 69 69 70 71 72 72 71 71
29 29 26 27 24 19 19 19 15 13 12 13 13 16 17 18 19 23 27 29 32 37 38 40 41 37 39 46 55 55 58 62 63 61 60 60 62 62 62 62 63 64 65 67 71 71 71 73 73 73 73 73 72 71 71 71 71 71 71 71 71 70 70 70 69 68 68 68 67 67 68 69 69 70 70 70 68 68 69 69 69 69 69 68 68 69 69 69 69 69 69 70 71 71 72 71 71
24 28 25 22 20 16 16 18 18 16 14 12 13 15 16 17 19 21 24 26 32 36 38 40 41 38 40 50 60 62 61 62 61 61 61 62 62 61 60 61 63 64 65 66 69 70 71 71 73 73 73 73 73 72 71 72 71 72 72 71 71 70 70 70 70 69 68 68 68 68 69 69 70 70 70 69 68 69 69 69 69 69 69 69 69 69 70 69 68 68 68 69 71 71 71 71 71
25 23 24 19 19 16 14 15 17 17 16 15 12 15 16 17 19 18 21 25 31 31 39 42 43 40 44 50 59 61 59 60 61 61 62 62 59 59 59 61 62 64 65 67 67 70 70 71 71 73 73 73 73 72 72 72 72 72 72 72 71 71 70 70 69 69 68 68 69 70 70 70 71 70 70 69 70 70 70 69 69 69 69 69 69 69 69 68 68 68 68 70 71 71 71 70 70
22 20 22 20 16 16 17 16 16 19 17 15 13 15 15 15 16 18 20 23 26 34 36 42 44 46 46 56 61 62 61 62 62 61 60 59 59 59 60 62 63 64 65 67 67 69 70 70 70 71 72 73 73 72 71 72 72 72 72 72 72 71 71 70 69 69 69 70 70 70 70 71 72 71 70 70 70 70 70 69 69 69 69 69 69 69 69 68 68 68 69 70 70 71 71 70 70
21 20 20 19 17 15 13 15 17 17 18 18 16 16 15 14 16 18 20 21 23 26 40 41 43 45 49 58 60 61 62 62 62 62 60 60 60 60 61 63 63 63 64 66 66 68 69 69 70 70 71 71 72 72 71 72 72 73 73 72 72 71 71 71 70 70 70 69 70 70 70 71 71 71 71 70 70 70 70 70 69 69 69 69 69 69 69 69 68 69 69 69 70 70 71 71 70
24 22 20 19 18 17 14 13 14 16 17 19 20 17 17 17 16 18 19 20 22 44 43 43 45 43 45 46 55 57 61 62 62 62 61 61 62 63 63 63 66 64 63 66 65 67 68 68 69 69 70 69 71 72 71 71 72 73 73 72 72 72 71 71 70 70 70 70 69 69 70 71 71 71 71 71 70 70 70 70 69 69 68 68 69 69 69 69 68 69 70 69 70 71 71 71 71
24 22 23 21 17 18 18 16 15 15 16 18 20 20 19 16 18 18 21 21 40 40 38 44 43 42 45 48 49 56 62 62 62 61 61 61 61 62 63 64 63 63 63 66 66 66 68 68 67 69 68 68 70 71 71 71 72 72 72 72 72 72 71 71 70 70 70 70 69 69 70 70 70 71 71 70 70 70 69 68 69 69 68 68 68 69 69 68 69 69 69 69 70 71 71 71 71
26 24 22 22 20 20 21 19 16 14 16 17 18 19 19 17 19 20 22 23 24 40 38 45 43 48 49 49 52 59 62 62 63 61 60 60 60 60 61 61 62 63 65 66 66 66 66 67 67 69 68 68 68 71 72 71 71 72 72 72 72 72 71 71 71 70 70 69 68 68 69 68 69 69 69 68 70 69 69 69 69 69 68 68 68 69 69 68 68 69 69 69 69 70 71 71 71
26 25 23 21 22 20 19 19 20 18 16 17 18 18 19 17 19 19 21 25 28 36 50 51 49 51 57 56 54 60 62 62 62 61 59 58 60 60 58 60 62 63 65 66 65 65 65 65 64 67 68 69 68 70 70 71 72 71 70 72 71 71 71 71 71 69 69 68 67 67 67 65 66 66 68 69 68 69 69 69 69 69 68 68 68 68 69 69 68 68 69 69 69 70 71 69 70
23 24 23 21 21 20 20 22 24 21 19 18 18 18 20 21 22 19 20 27 27 35 50 52 56 53 60 61 63 62 62 63 64 63 59 59 59 61 60 61 62 63 63 64 65 65 65 64 65 67 66 68 69 68 70 71 70 70 69 69 69 70 71 71 69 68 66 64 64 61 64 64 63 63 66 67 66 69 69 69 69 69 68 68 68 68 69 69 69 68 69 70 68 69 68 64 63
22 22 21 21 21 21 21 23 23 22 22 20 18 20 20 21 21 21 25 27 26 31 39 52 55 55 57 61 63 63 62 63 65 64 61 60 60 61 62 63 62 64 63 63 65 65 64 64 64 65 65 69 69 68 70 70 70 69 69 70 70 69 70 69 68 67 62 62 61 62 61 64 65 65 63 68 66 67 68 69 68 68 69 68 68 68 69 69 68 68 69 69 69 65 60 60 60
22 21 19 19 21 22 22 22 20 19 21 20 20 22 22 21 21 22 22 25 26 30 34 38 52 55 61 61 63 63 64 65 65 65 64 60 63 65 64 64 62 63 63 63 65 66 64 66 65 65 67 68 69 68 67 68 69 68 68 69 69 68 69 69 67 66 64 62 63 64 63 63 63 62 62 63 64 66 67 67 68 66 67 65 68 67 65 62 64 58 61 65 57 54 54 57 58
21 20 21 22 22 22 22 21 20 19 19 20 20 22 24 26 26 22 20 20 24 27 34 41 46 46 59 60 61 61 65 67 67 65 64 63 65 66 67 66 67 65 64 63 64 65 64 66 66 65 67 69 69 68 66 67 70 67 68 68 68 68 69 67 67 63 62 64 63 63 63 63 64 64 64 63 65 65 65 64 64 65 63 64 67 65 63 61 59 57 56 55 55 55 56 57 57
17 18 20 23 22 21 23 23 23 23 20 19 19 20 23 26 29 28 23 22 23 25 32 35 40 45 53 57 61 63 65 67 67 67 66 63 65 67 67 66 66 65 65 64 65 65 65 66 65 65 67 67 67 68 67 67 68 66 68 67 68 66 68 67 65 61 62 63 63 64 64 62 64 63 63 63 63 65 65 64 62 62 64 64 65 62 63 61 57 56 57 57 53 55 53 54 56
14 15 17 18 20 21 21 21 22 23 22 20 20 22 22 25 28 28 25 22 23 22 26 32 35 35 48 54 60 62 63 64 64 67 68 67 68 68 69 68 66 67 65 66 64 65 66 65 65 64 66 67 67 68 66 64 68 67 67 67 68 66 67 66 63 61 63 62 63 64 64 64 64 63 63 63 63 63 62 64 63 62 63 62 62 59 62 61 58 57 58 56 55 54 52 54 55
12 14 15 14 16 17 19 21 20 21 23 24 24 23 23 22 28 30 24 19 23 24 26 34 33 43 45 53 59 64 65 66 65 67 66 65 67 70 70 69 68 67 66 66 65 65 65 66 65 63 64 66 66 66 64 63 67 67 67 67 66 68 67 66 64 63 62 63 64 64 65 65 64 65 64 63 64 63 63 64 61 61 63 62 62 58 61 62 59 57 58 57 57 54 53 57 54
9 13 14 13 14 15 15 16 17 18 21 22 21 22 23 24 30 29 24 24 26 26 26 28 36 40 42 46 56 62 62 64 66 66 67 66 69 70 68 68 68 67 67 66 66 65 63 64 63 63 64 66 67 67 65 65 64 66 67 67 65 68 66 67 65 60 62 63 64 65 65 65 65 64 65 65 64 64 64 65 64 64 63 64 64 62 61 59 58 60 57 56 53 52 53 57 56
9 9 9 9 12 15 14 13 15 15 17 20 20 22 24 24 26 25 33 28 28 27 28 30 37 32 45 42 48 58 59 64 65 65 66 67 68 68 69 68 67 67 68 67 66 66 66 63 62 63 64 68 67 65 66 65 66 66 66 66 66 68 66 67 63 63 63 64 65 67 65 66 66 65 65 66 65 65 65 66 65 65 63 64 64 62 64 62 61 58 57 56 54 53 54 57 55
12 15 14 14 15 18 18 14 12 13 14 15 14 19 18 22 22 20 22 25 30 30 27 27 29 40 37 52 53 56 61 65 63 64 67 66 65 66 68 67 67 68 68 67 66 66 65 64 63 62 65 68 68 66 66 65 65 65 67 66 66 67 68 65 63 63 64 63 64 66 66 66 67 65 66 66 65 66 65 65 64 65 64 64 62 61 63 63 61 58 57 58 57 58 57 59 59
11 14 11 15 17 16 16 17 16 17 16 16 17 14 17 18 16 18 19 22 26 27 27 27 28 36 46 44 54 56 58 63 66 64 65 65 63 67 69 68 68 68 68 68 67 66 66 66 65 63 67 68 67 67 66 65 65 65 66 66 66 67 66 66 63 64 65 63 64 66 67 66 67 66 67 67 65 64 64 64 63 64 63 63 62 64 64 63 62 61 62 62 61 61 60 61 64
10 10 10 10 10 12 15 18 19 17 15 14 15 14 16 17 15 16 22 21 25 24 25 25 29 32 32 50 51 54 57 64 66 65 61 64 64 66 69 70 70 69 67 67 68 67 67 67 66 66 67 67 68 68 67 64 66 65 65 65 66 66 66 65 62 65 63 61 64 66 65 65 64 66 66 66 64 62 64 64 63 62 61 62 62 66 64 63 61 62 62 61 61 60 61 64 69
8 8 7 6 6 8 10 12 15 15 16 14 14 13 12 12 14 19 23 26 27 26 28 29 32 34 33 33 42 55 62 63 65 66 64 63 64 64 69 70 70 69 68 68 67 67 67 66 66 65 67 67 67 67 67 66 66 65 63 64 65 67 66 64 62 64 62 61 65 64 65 64 62 65 65 66 64 62 64 62 62 61 63 63 61 64 63 63 62 61 61 61 64 65 66 69 69
7 5 4 3 3 2 4 8 10 12 14 14 14 12 12 12 15 26 33 28 29 27 28 30 32 33 35 34 37 53 55 62 63 62 63 65 63 63 68 69 70 69 69 68 68 67 67 67 66 66 66 66 67 67 67 67 65 66 64 64 65 68 65 63 63 64 61 61 64 63 64 65 65 65 66 66 67 66 64 64 65 65 67 65 65 66 66 66 65 65 66 66 67 65 68 67 68
-0 3 5 4 3 2 1 3 5 7 8 12 13 10 12 11 18 24 31 32 31 26 27 29 35 38 35 32 36 53 56 54 60 62 64 67 65 66 68 70 70 69 69 69 68 68 67 67 67 66 66 66 67 67 67 67 66 65 65 64 64 66 65 63 63 63 60 62 62 60 65 66 66 66 68 67 69 68 66 67 67 69 70 69 69 69 68 68 67 66 67 67 68 68 68 67 67
-2 -3 2 3 4 4 2 3 2 4 10 11 11 10 11 12 16 14 21 30 25 25 26 30 30 30 33 34 33 40 47 51 53 57 64 66 66 68 68 69 70 69 69 69 69 68 67 67 67 67 66 66 67 67 67 66 65 64 63 63 66 65 65 63 62 62 60 60 63 61 64 66 66 66 67 67 69 68 68 68 68 70 70 69 69 68 69 68 67 68 68 68 67 67 68 66 66
3 4 5 1 2 4 5 4 3 3 6 10 9 8 8 10 13 11 21 27 25 24 25 25 26 26 31 34 33 32 39 51 50 50 59 69 68 69 68 70 70 69 69 70 69 69 68 68 67 67 67 67 67 68 67 66 66 65 63 64 65 65 66 63 63 61 59 59 63 63 64 66 66 66 66 66 68 67 67 68 69 70 69 69 69 68 69 68 68 69 68 68 68 67 68 69 67
-1 -1 -2 -1 2 -2 0 5 7 5 3 6 8 7 7 9 12 15 19 20 20 21 25 27 29 27 29 34 33 32 35 49 49 52 52 66 68 69 69 70 70 69 70 70 70 69 69 68 67 67 67 67 68 68 67 65 64 63 62 63 64 64 65 62 64 61 60 58 62 64 64 66 65 66 65 66 68 68 67 68 69 70 68 69 69 68 68 67 69 70 69 68 67 66 67 68 68
1 -1 1 6 5 -1 1 -0 6 9 6 7 11 11 8 10 12 12 16 19 21 20 20 27 29 29 31 30 34 34 35 44 49 53 59 60 68 69 69 69 70 70 70 70 70 69 69 67 67 67 68 68 67 66 66 65 64 63 62 62 62 64 63 63 64 64 60 55 60 63 65 65 66 65 65 65 67 68 67 67 68 69 68 68 69 68 68 68 69 69 68 67 66 65 65 66 67
6 6 7 7 6 4 5 6 7 9 12 11 12 12 14 14 13 10 14 16 14 20 21 23 24 28 33 32 30 33 35 41 47 53 58 58 64 69 70 70 70 69 70 70 69 69 69 69 67 67 67 68 67 66 66 66 66 62 62 60 61 61 62 62 62 64 62 56 59 63 65 65 65 65 65 66 68 68 68 66 67 69 68 68 68 69 69 68 68 68 67 68 65 65 64 65 66
3 3 5 6 6 6 4 3 4 8 8 9 13 13 14 13 14 10 10 16 17 19 23 23 23 28 31 31 32 33 33 35 46 54 56 51 59 69 68 69 69 70 69 69 70 70 70 68 68 68 68 68 68 67 67 66 65 65 64 63 62 62 62 64 62 63 64 59 61 63 65 66 65 64 65 64 67 67 68 67 66 68 69 68 68 68 68 68 68 67 67 65 63 63 65 65 66
3 2 4 1 1 -1 -1 -3 -1 2 8 10 13 12 16 18 17 15 12 4 13 15 13 18 24 28 29 30 30 33 33 34 38 39 54 54 54 62 68 69 68 69 69 70 69 69 69 68 68 69 68 68 67 67 67 67 66 66 66 65 65 64 63 64 65 64 65 62 61 63 65 66 65 64 64 64 65 67 68 67 66 67 69 68 67 66 68 68 68 67 66 66 64 62 60 63 65
3 1 -1 -0 0 0 -0 -2 -3 -1 3 8 10 13 13 15 15 13 15 13 8 10 11 17 21 29 30 30 28 31 33 36 36 37 45 56 59 62 67 68 69 69 69 69 69 69 69 69 68 68 68 68 67 67 67 67 66 65 65 66 65 66 65 64 63 62 64 64 62 64 63 65 65 64 64 64 63 66 67 67 67 67 69 68 67 67 68 68 68 66 66 65 64 62 61 63 65
2 2 2 0 -0 2 1 -1 -1 2 4 2 5 7 6 10 13 12 14 14 13 10 13 14 19 18 25 30 30 30 36 34 36 37 47 53 62 66 68 69 69 69 69 69 69 70 69 68 68 69 68 67 68 68 68 67 65 64 65 63 63 63 63 63 63 63 64 64 60 63 62 63 64 64 64 64 62 64 66 67 67 67 70 67 67 67 68 68 68 67 66 65 63 64 63 61 63
5 0 0 2 3 0 2 3 2 1 2 3 3 6 9 11 10 14 17 16 15 18 16 13 16 17 21 26 26 25 28 32 35 37 36 53 63 65 66 67 68 69 69 69 70 70 70 69 69 69 69 69 68 68 68 67 66 65 66 64 63 64 63 64 65 65 65 63 63 64 61 64 63 63 64 63 64 65 65 67 67 67 66 66 67 67 67 68 67 66 66 64 63 63 64 62 63
-2 2 -1 1 3 3 2 2 4 3 3 3 1 4 7 6 6 10 13 17 19 21 18 21 20 20 22 24 25 28 24 29 32 36 38 43 55 63 64 66 68 68 70 69 70 70 70 69 69 69 69 69 69 68 67 68 67 67 66 65 64 63 64 64 65 66 67 66 64 63 63 63 65 65 65 64 65 65 65 66 67 67 66 66 66 66 67 69 67 66 67 66 65 64 64 64 64
-4 -3 2 2 3 5 4 2 1 2 2 3 1 -1 2 -1 6 4 8 11 15 16 18 20 21 23 25 26 26 26 28 29 29 36 39 38 55 60 63 63 65 67 68 69 69 70 70 70 69 69 69 69 69 69 68 67 68 68 66 65 65 63 65 65 65 65 65 66 66 64 63 63 64 65 65 65 65 65 66 66 66 66 66 66 65 66 67 67 68 67 67 67 66 65 65 65 65
-2 -2 3 4 4 3 1 1 0 4 6 6 0 -1 -1 -0 1 1 5 6 11 14 14 16 20 21 21 22 24 26 26 31 31 32 35 39 42 62 64 64 64 65 69 69 69 69 70 70 69 68 68 69 69 69 69 68 68 68 67 67 66 65 65 65 65 64 65 66 66 66 65 65 64 65 65 64 64 65 65 66 65 65 66 66 65 65 66 67 68 67 67 66 66 65 64 65 64
3 3 5 4 2 1 2 3 2 4 5 5 4 -0 -2 -2 -0 1 8 9 11 11 15 15 17 18 18 20 17 19 21 22 21 29 32 37 43 45 64 64 64 66 70 70 69 69 69 69 69 68 68 68 69 69 69 68 68 68 67 67 67 66 66 66 65 65 64 66 65 66 66 65 65 65 66 66 64 65 67 66 66 65 66 67 65 65 66 66 67 68 67 67 66 65 67 67 65
8 4 2 1 4 2 5 6 5 6 4 0 -1 2 -1 3 4 -0 6 6 3 6 9 16 17 14 16 22 19 17 14 15 21 23 25 34 40 44 52 59 62 66 69 69 70 70 70 69 69 69 68 69 69 69 69 69 68 69 69 68 67 67 67 66 66 65 65 65 66 65 66 66 66 65 66 65 66 66 67 66 67 66 65 67 66 66 66 66 67 67 67 66 66 66 66 66 65
9 6 5 4 3 5 5 5 6 4 -1 1 -3 -1 1 -0 6 5 2 -2 -3 2 0 10 15 15 21 16 21 23 18 16 17 20 28 32 34 47 48 54 60 63 68 68 69 71 70 70 69 69 68 69 68 69 69 69 69 69 68 68 68 68 67 65 65 66 65 65 66 66 66 65 65 65 65 65 66 66 66 66 67 66 66 67 67 66 66 66 66 67 65 66 66 65 65 65 66
8 9 9 7 2 2 5 3 7 7 4 -1 -3 -2 -0 5 5 2 2 3 -6 1 9 12 13 19 22 19 20 18 19 15 16 20 21 27 32 38 57 56 57 62 65 69 69 70 70 69 69 68 68 68 69 69 69 69 69 69 69 68 68 67 67 67 66 65 66 66 66 66 66 66 66 66 66 65 66 65 65 66 67 67 67 67 67 67 66 65 66 65 66 66 65 65 66 66 66
8 9 8 8 5 2 6 3 3 4 2 1 1 -1 4 3 5 5 6 2 4 -0 -2 8 17 18 23 20 13 14 18 22 17 15 18 25 38 42 55 56 59 61 64 68 68 67 69 69 68 68 67 68 68 69 69 69 68 69 69 68 68 68 67 67 66 66 67 67 66 66 66 66 66 66 65 66 66 65 66 66 66 67 67 67 66 67 66 65 65 63 64 64 63 64 64 63 62
7 11 12 10 9 6 1 6 6 8 7 8 8 12 10 4 6 3 2 0 -3 -1 -1 10 12 10 14 16 18 18 17 15 16 20 21 33 40 42 47 59 60 61 63 68 67 68 68 68 69 68 68 69 69 69 69 69 69 68 69 69 69 69 68 67 67 67 67 67 67 66 66 67 67 66 66 66 66 65 65 65 66 66 67 67 66 67 66 64 65 64 64 63 63 62 63 62 62
11 8 7 1 4 -1 6 12 13 14 8 5 8 7 5 11 7 6 2 0 -2 0 -0 1 6 9 15 8 4 10 18 18 22 20 19 31 34 40 42 46 57 60 60 63 67 66 67 68 68 68 68 68 69 69 68 68 69 69 69 69 68 69 68 67 67 68 68 68 68 67 66 66 67 67 67 67 67 66 66 65 65 66 67 67 67 66 65 65 65 65 63 63 61 62 62 61 61
9 10 11 11 5 5 8 3 7 5 4 7 4 0 -1 -0 8 7 7 8 4 6 4 -0 10 10 11 10 13 8 9 16 21 25 28 30 31 34 36 43 46 53 58 60 63 66 65 69 69 69 69 68 69 69 69 69 70 69 69 69 69 69 68 68 68 67 67 67 67 67 66 66 67 66 66 66 67 66 65 65 65 66 67 67 66 65 64 65 65 64 64 62 61 62 61 61 61
13 11 12 11 15 11 8 7 6 7 7 5 4 -1 -5 -7 1 3 7 9 11 8 4 7 6 9 9 10 11 11 13 18 19 24 27 25 29 31 35 42 42 48 52 50 57 60 60 68 68 69 69 69 69 68 69 69 70 70 69 68 69 69 68 68 68 67 68 66 66 65 66 67 67 66 66 67 66 64 65 65 65 66 67 66 65 64 65 65 63 63 63 62 62 62 60 59 60
16 16 13 13 14 16 14 16 13 6 5 9 4 1 1 -1 0 4 2 6 9 8 9 9 10 8 12 12 12 14 18 23 18 20 18 22 25 29 32 37 35 42 46 53 54 56 58 66 68 67 68 68 69 69 69 69 69 69 69 69 69 67 68 67 68 68 67 66 65 65 65 66 68 66 65 65 64 64 65 64 64 65 65 65 64 64 64 63 64 63 63 61 61 60 59 59 59
20 18 16 15 20 16 15 18 10 7 6 3 5 6 7 7 -2 1 3 2 6 9 11 11 9 9 10 12 19 20 21 23 24 24 25 25 31 33 32 35 33 38 39 43 49 55 59 63 67 67 67 68 69 69 69 69 68 67 68 68 68 68 68 67 68 68 68 67 67 66 65 66 66 66 65 64 64 63 63 63 63 63 63 64 64 65 65 64 63 62 62 60 60 59 58 58 58
9 13 15 14 14 15 13 13 9 4 1 6 4 5 9 9 1 0 1 5 5 4 9 14 10 8 16 23 31 31 32 36 39 39 39 41 44 45 47 46 41 40 42 44 39 48 54 59 61 64 64 67 68 68 68 68 68 68 69 68 67 68 67 68 68 68 68 66 66 66 67 66 66 65 63 62 64 64 64 63 63 61 62 63 64 64 64 63 62 62 62 61 61 59 58 57 58